CW9803 Weather Reports


Display with metric or nautical units.
time (UTC)temp
F
wind
direction
speed
MPH
gust
MPH
rain 1hr
in
rain 24hr
in
rain mn
in
humidity
%
barometer
mb
20260508173821 61 133 0.0 0.0 0.00 0.00 0.00 42 1014.7
20260508173319 58 136 2.0 2.0 0.00 0.00 0.00 42 1014.6
20260508172815 58 143 1.0 1.0 0.00 0.00 0.00 44 1014.7
20260508172312 58 136 2.0 2.0 0.00 0.00 0.00 43 1014.4
20260508171808 58 117 1.0 2.0 0.00 0.00 0.00 46 1014.5
20260508171304 57 149 2.0 2.0 0.00 0.00 0.00 47 1014.5
20260508170801 56 139 2.0 3.0 0.00 0.00 0.00 50 1014.5
20260508170300 55 158 3.0 4.0 0.00 0.00 0.00 53 1014.7
20260508165755 55 168 2.0 2.0 0.00 0.00 0.00 53 1014.7
20260508165253 54 162 1.0 2.0 0.00 0.00 0.00 55 1014.7
20260508164749 54 127 2.0 2.0 0.00 0.00 0.00 57 1014.8
20260508164246 53 156 2.0 2.0 0.00 0.00 0.00 59 1014.8
20260508163744 53 162 2.0 2.0 0.00 0.00 0.00 59 1014.6
20260508163242 53 174 1.0 1.0 0.00 0.00 0.00 61 1014.7
20260508162737 53 162 1.0 1.0 0.00 0.00 0.00 62 1014.7
20260508162234 52 137 1.0 1.0 0.00 0.00 0.00 63 1014.6
20260508161731 52 149 1.0 2.0 0.00 0.00 0.00 63 1014.5
20260508161228 51 147 1.0 1.0 0.00 0.00 0.00 64 1014.4
20260508160726 51 161 1.0 1.0 0.00 0.00 0.00 65 1014.6
20260508160224 51 149 2.0 2.0 0.00 0.00 0.00 64 1014.6
20260508155720 50 136 0.0 0.0 0.00 0.00 0.00 64 1014.6
20260508155218 50 135 1.0 1.0 0.00 0.00 0.00 64 1014.6
20260508154714 50 154 1.0 2.0 0.00 0.00 0.00 64 1014.5
20260508154212 49 156 1.0 1.0 0.00 0.00 0.00 63 1014.6
20260508153708 49 137 0.0 0.0 0.00 0.00 0.00 63 1014.5
20260508153206 48 172 0.0 1.0 0.00 0.00 0.00 64 1014.7
20260508152702 48 142 0.0 0.0 0.00 0.00 0.00 66 1014.7
20260508152158 48 131 0.0 0.0 0.00 0.00 0.00 64 1014.6
20260508151654 47 122 0.0 0.0 0.00 0.00 0.00 65 1014.6
20260508151151 46 152 0.0 0.0 0.00 0.00 0.00 67 1014.7
20260508150648 45 118 0.0 0.0 0.00 0.00 0.00 67 1014.7
20260508150144 44 157 0.0 1.0 0.00 0.00 0.00 67 1014.6
20260508145640 45 90 1.0 1.0 0.00 0.00 0.00 69 1014.7
20260508145137 44 308 2.0 2.0 0.00 0.00 0.00 73 1014.6
20260508144635 45 59 1.0 2.0 0.00 0.00 0.00 73 1014.7
20260508144132 44 116 0.0 0.0 0.00 0.00 0.00 75 1014.6
20260508143629 43 83 2.0 2.0 0.00 0.00 0.00 76 1014.6
20260508143126 42 58 2.0 2.0 0.00 0.00 0.00 76 1014.6
20260508142622 41 94 2.0 2.0 0.00 0.00 0.00 77 1014.5
20260508142119 40 8 2.0 3.0 0.00 0.00 0.00 79 1014.5
20260508141616 40 145 1.0 2.0 0.00 0.00 0.00 79 1014.6
20260508141114 0 0.0 0.0 0.00 0.00 0.00 1014.7
20260508140611 40 111 0.0 0.0 0.00 0.00 0.00 79 1014.6
20260508140108 40 111 0.0 0.0 0.00 0.00 0.00 79 1014.5
20260508135602 39 110 0.0 0.0 0.00 0.00 0.00 81 1014.5
20260508135059 38 115 0.0 0.0 0.00 0.00 0.00 82 1014.5
20260508134556 37 118 0.0 1.0 0.00 0.00 0.00 84 1014.7
20260508134053 37 104 0.0 0.0 0.00 0.00 0.00 85 1014.5
20260508133549 36 50 2.0 2.0 0.00 0.00 0.00 86 1014.5
20260508133047 36 118 0.0 0.0 0.00 0.00 0.00 88 1014.6
20260508132545 36 117 0.0 0.0 0.00 0.00 0.00 89 1014.5
20260508132041 35 125 0.0 0.0 0.00 0.00 0.00 92 1014.5
20260508131536 34 126 0.0 0.0 0.00 0.00 0.00 92 1014.5
20260508131033 33 135 0.0 0.0 0.00 0.00 0.00 93 1014.5
20260508130531 33 135 0.0 0.0 0.00 0.00 0.00 93 1014.5
20260508130026 0 0.0 0.0 0.00 0.00 0.00 1014.3
20260508125517 0 0.0 0.0 0.00 0.00 0.00 1014.3
20260508125015 0 0.0 0.0 0.00 0.00 0.00 1014.2
20260508124513 0 0.0 0.0 0.00 0.00 0.00 1014.3
20260508124010 0 0.0 0.0 0.00 0.00 0.00 1014.0
20260508123508 0 0.0 0.0 0.00 0.00 0.00 1014.2
20260508123004 33 126 0.0 0.0 0.00 0.00 0.00 89 1014.0
20260508122502 33 126 0.0 0.0 0.00 0.00 0.00 89 1014.2
20260508121958 33 126 0.0 0.0 0.00 0.00 0.00 89 1014.2
20260508121456 33 131 0.0 0.0 0.00 0.00 0.00 89 1014.2
20260508120954 33 142 0.0 0.0 0.00 0.00 0.00 89 1013.9
20260508120451 33 124 0.0 0.0 0.00 0.00 0.00 90 1014.0
20260508115949 33 124 0.0 0.0 0.00 0.00 0.00 90 1013.8
20260508115447 33 122 0.0 0.0 0.00 0.00 0.00 91 1013.8
20260508114943 0 0.0 0.0 0.00 0.00 0.00 1013.8
20260508114440 0 0.0 0.0 0.00 0.00 0.00 1013.8
20260508113937 0 0.0 0.0 0.00 0.00 0.00 1013.7
20260508113435 0 0.0 0.0 0.00 0.00 0.00 1013.7
20260508112932 0 0.0 0.0 0.00 0.00 0.00 1013.7
20260508112428 33 120 0.0 0.0 0.00 0.00 0.00 92 1013.7
20260508111925 33 120 0.0 0.0 0.00 0.00 0.00 92 1014.0
20260508111422 34 120 0.0 0.0 0.00 0.00 0.00 92 1013.8
20260508110919 35 169 1.0 1.0 0.00 0.00 0.00 92 1013.6
20260508110417 35 169 1.0 1.0 0.00 0.00 0.00 92 1013.6
20260508105916 35 113 0.0 0.0 0.00 0.00 0.00 92 1013.8
20260508105413 35 113 0.0 0.0 0.00 0.00 0.00 92 1013.7
20260508104910 35 152 0.0 0.0 0.00 0.00 0.00 92 1013.9
20260508104407 35 140 0.0 0.0 0.00 0.00 0.00 90 1013.7
20260508103904 35 122 0.0 0.0 0.00 0.00 0.00 89 1013.8
20260508103401 35 129 0.0 0.0 0.00 0.00 0.00 87 1013.8
20260508102858 35 126 0.0 0.0 0.00 0.00 0.00 87 1013.5
20260508102357 35 122 1.0 1.0 0.00 0.00 0.00 86 1013.5
20260508101854 36 98 1.0 1.0 0.00 0.00 0.00 86 1013.7
20260508101351 36 158 0.0 1.0 0.00 0.00 0.00 86 1013.6
20260508100848 36 114 0.0 0.0 0.00 0.00 0.00 86 1013.6
20260508100347 0 0.0 0.0 0.00 0.00 0.00 1013.3
20260508095842 0 0.0 0.0 0.00 0.00 0.00 1013.3
20260508095340 36 124 0.0 0.0 0.00 0.00 0.00 85 1013.5
20260508094837 36 124 0.0 0.0 0.00 0.00 0.00 85 1013.6
20260508094333 37 146 0.0 0.0 0.00 0.00 0.00 86 1013.5
20260508093831 37 146 0.0 0.0 0.00 0.00 0.00 86 1013.5
20260508093328 37 116 0.0 0.0 0.00 0.00 0.00 87 1013.7
20260508092825 37 114 0.0 0.0 0.00 0.00 0.00 87 1013.4
20260508092323 38 136 0.0 0.0 0.00 0.00 0.00 87 1013.5
20260508091821 38 137 0.0 1.0 0.00 0.00 0.00 85 1013.5
20260508091317 0 0.0 0.0 0.00 0.00 0.00 1013.4
20260508090815 39 175 2.0 2.0 0.00 0.00 0.00 83 1013.7
20260508090314 39 175 2.0 2.0 0.00 0.00 0.00 83 1013.5
20260508085809 0 0.0 0.0 0.00 0.00 0.00 1013.7
20260508085307 0 0.0 0.0 0.00 0.00 0.00 1013.8
20260508084802 40 133 0.0 0.0 0.00 0.00 0.00 82 1013.8
20260508084259 40 133 0.0 0.0 0.00 0.00 0.00 82 1013.7
20260508083757 0 0.0 0.0 0.00 0.00 0.00 1013.5
20260508083254 0 0.0 0.0 0.00 0.00 0.00 1013.8
20260508082754 0 0.0 0.0 0.00 0.00 0.00 1013.9
20260508082252 40 151 0.0 0.0 0.00 0.00 0.00 80 1013.6
20260508081749 40 151 0.0 0.0 0.00 0.00 0.00 80 1013.7
20260508081246 41 161 1.0 1.0 0.00 0.00 0.00 80 1013.5
20260508080743 41 143 0.0 0.0 0.00 0.00 0.00 79 1013.6
20260508080241 41 143 0.0 0.0 0.00 0.00 0.00 79 1013.6
20260508075737 42 148 0.0 0.0 0.00 0.00 0.00 78 1013.5
20260508075234 42 147 0.0 0.0 0.00 0.00 0.00 78 1013.6
20260508074732 42 148 0.0 0.0 0.00 0.00 0.00 78 1013.5
20260508074229 42 110 0.0 0.0 0.00 0.00 0.00 77 1013.6
20260508073725 42 111 0.0 0.0 0.00 0.00 0.00 77 1013.5
20260508073224 42 112 0.0 0.0 0.00 0.00 0.00 76 1013.6
20260508072719 42 114 0.0 0.0 0.00 0.00 0.00 77 1013.4
20260508072216 43 91 1.0 1.0 0.00 0.00 0.00 79 1013.3
20260508071714 0 0.0 0.0 0.00 0.00 0.00 1013.2
20260508071212 0 0.0 0.0 0.00 0.00 0.00 1013.3
20260508070709 0 0.0 0.0 0.00 0.00 0.00 1013.3
20260508070208 0 0.0 0.0 0.00 0.00 0.00 1013.2
20260508065704 0 0.0 0.0 0.00 0.00 0.00 1013.3
20260508065203 0 0.0 0.0 0.00 0.00 0.00 1013.2
20260508064700 0 0.0 0.0 0.00 0.00 0.00 1013.2
20260508064158 0 0.0 0.0 0.00 0.00 0.00 1013.2
20260508063655 0 0.0 0.0 0.00 0.00 0.00 1013.2
20260508063153 45 149 0.0 0.0 0.00 0.00 0.00 70 1013.2
20260508062650 45 149 0.0 0.0 0.00 0.00 0.00 70 1013.3
20260508062147 0 0.0 0.0 0.00 0.00 0.00 1013.0
20260508061644 0 0.0 0.0 0.00 0.00 0.00 1013.3
20260508061142 0 0.0 0.0 0.00 0.00 0.00 1013.3
20260508060638 0 0.0 0.0 0.00 0.00 0.00 1013.1
20260508060135 0 0.0 0.0 0.00 0.00 0.00 1013.0
20260508055631 0 0.0 0.0 0.00 0.00 0.00 1013.1
20260508055128 0 0.0 0.0 0.00 0.00 0.00 1013.0
20260508054624 0 0.0 0.0 0.00 0.00 0.00 1013.0
20260508054122 0 0.0 0.0 0.00 0.00 0.00 1013.0
20260508053619 48 120 0.0 0.0 0.00 0.00 0.00 67 1013.0
20260508053116 48 120 0.0 0.0 0.00 0.00 0.00 67 1012.9
20260508052614 0 0.0 0.0 0.00 0.00 0.00 1012.9
20260508052111 0 0.0 0.0 0.00 0.00 0.00 1012.9
20260508051607 0 0.0 0.0 0.00 0.00 0.00 1013.0
20260508051102 0 0.0 0.0 0.00 0.00 0.00 1012.9
20260508050558 0 0.0 0.0 0.00 0.00 0.00 1013.0
20260508050056 0 0.0 0.0 0.00 0.00 0.00 1012.7
20260508045552 0 0.0 0.0 0.00 0.00 0.00 1013.1
20260508045050 0 0.0 0.0 0.00 0.00 0.00 1012.9
20260508044547 0 0.0 0.0 0.00 0.00 0.00 1013.2
20260508044043 52 117 0.0 0.0 0.00 0.00 0.00 63 1013.0
20260508043539 52 117 0.0 0.0 0.00 0.00 0.00 63 1012.9
20260508043037 52 117 0.0 0.0 0.00 0.00 0.00 63 1012.9
20260508042533 52 103 0.0 1.0 0.00 0.00 0.00 64 1013.0
20260508042031 0 0.0 0.0 0.00 0.00 0.00 1012.9
20260508041527 0 0.0 0.0 0.00 0.00 0.00 1012.7
20260508041024 0 0.0 0.0 0.00 0.00 0.00 1012.7
20260508040521 0 0.0 0.0 0.00 0.00 0.00 1012.6
20260508040019 0 0.0 0.0 0.00 0.00 0.00 1012.6
20260508035515 0 0.0 0.0 0.00 0.00 0.00 1012.5
20260508035012 0 0.0 0.0 0.00 0.00 0.00 1012.7
20260508034510 55 131 0.0 0.0 0.00 0.00 0.00 56 1012.9
20260508034006 55 131 0.0 0.0 0.00 0.00 0.00 56 1012.5
20260508033504 55 148 0.0 0.0 0.00 0.00 0.00 58 1012.4
20260508033002 56 174 1.0 1.0 0.00 0.00 0.00 57 1012.5
20260508032458 57 132 1.0 1.0 0.00 0.00 0.00 53 1012.3
20260508031955 57 153 0.0 0.0 0.00 0.00 0.00 54 1012.4
20260508031453 58 121 0.0 0.0 0.00 0.00 0.00 52 1012.2
20260508030948 58 122 0.0 0.0 0.00 0.00 0.00 53 1012.2
20260508030445 58 121 0.0 0.0 0.00 0.00 0.00 51 1012.0
20260508025943 58 104 0.0 0.0 0.00 0.00 0.00 49 1012.0
20260508025439 59 109 0.0 0.0 0.00 0.00 0.00 50 1012.3
20260508024937 60 160 0.0 1.0 0.00 0.00 0.00 48 1012.1
20260508024432 61 158 1.0 1.0 0.00 0.00 0.00 48 1012.2
20260508023929 61 123 0.0 0.0 0.00 0.00 0.00 46 1012.2
20260508023426 63 116 0.0 0.0 0.00 0.00 0.00 45 1011.9
20260508022923 0 0.0 0.0 0.00 0.00 0.00 1012.0
20260508022419 67 138 1.0 1.0 0.00 0.00 0.00 35 1011.8
20260508021916 67 138 1.0 1.0 0.00 0.00 0.00 35 1011.8
20260508021412 68 156 1.0 1.0 0.00 0.00 0.00 33 1011.9
20260508020908 68 136 0.0 0.0 0.00 0.00 0.00 32 1012.1
20260508020406 67 106 0.0 0.0 0.00 0.00 0.00 33 1012.0
20260508015903 66 132 0.0 0.0 0.00 0.00 0.00 36 1012.0
20260508015401 67 91 0.0 0.0 0.00 0.00 0.00 39 1011.9
20260508014857 68 95 1.0 2.0 0.00 0.00 0.00 36 1012.0
20260508014354 68 127 0.0 0.0 0.00 0.00 0.00 34 1011.9
20260508013849 68 152 0.0 0.0 0.00 0.00 0.00 32 1011.7
20260508013346 69 342 2.0 3.0 0.00 0.00 0.00 30 1011.9
20260508012843 69 160 0.0 0.0 0.00 0.00 0.00 29 1011.7
20260508012340 69 156 0.0 0.0 0.00 0.00 0.00 31 1011.8
20260508011838 69 266 7.0 8.0 0.00 0.00 0.00 27 1011.7
20260508011336 69 226 3.0 3.0 0.00 0.00 0.00 30 1011.8
20260508010833 70 297 4.0 4.0 0.00 0.00 0.00 30 1011.9
20260508010330 71 280 2.0 3.0 0.00 0.00 0.00 29 1011.9
20260508005827 72 157 2.0 2.0 0.00 0.00 0.00 29 1011.9
20260508005324 72 245 4.0 4.0 0.00 0.00 0.00 24 1011.7
20260508004820 72 271 5.0 8.0 0.00 0.00 0.00 20 1011.9
20260508004316 72 282 5.0 6.0 0.00 0.00 0.00 20 1012.0
20260508003813 72 224 4.0 6.0 0.00 0.00 0.00 21 1011.7
20260508003310 73 233 3.0 3.0 0.00 0.00 0.00 22 1011.7
20260508002807 72 238 5.0 7.0 0.00 0.00 0.00 22 1011.7
20260508002306 73 310 3.0 6.0 0.00 0.00 0.00 22 1011.9
20260508001800 73 255 2.0 3.0 0.00 0.00 0.00 20 1011.9
20260508001256 73 211 4.0 7.0 0.00 0.00 0.00 21 1011.9
20260508000752 73 130 1.0 1.0 0.00 0.00 0.00 20 1012.0
20260508000250 73 286 7.0 8.0 0.00 0.00 0.00 19 1011.7
20260507235745 74 209 5.0 6.0 0.00 0.00 0.00 18 1011.7
20260507235243 73 309 4.0 4.0 0.00 0.00 0.00 17 1011.7
20260507234740 74 256 4.0 6.0 0.00 0.00 0.00 18 1011.7
20260507234237 75 267 4.0 4.0 0.00 0.00 0.00 18 1011.7
20260507233733 74 125 1.0 2.0 0.00 0.00 0.00 21 1011.7
20260507233231 74 102 0.0 1.0 0.00 0.00 0.00 19 1011.8
20260507232728 73 267 3.0 4.0 0.00 0.00 0.00 18 1011.8
20260507232225 73 164 2.0 2.0 0.00 0.00 0.00 21 1011.8
20260507231721 75 261 9.0 10.0 0.00 0.00 0.00 21 1012.0
20260507231219 75 158 1.0 2.0 0.00 0.00 0.00 21 1011.8
20260507230715 75 137 2.0 4.0 0.00 0.00 0.00 20 1011.9
20260507230213 75 268 4.0 4.0 0.00 0.00 0.00 18 1011.9
20260507225712 76 231 2.0 3.0 0.00 0.00 0.00 21 1011.8
20260507225209 74 219 5.0 7.0 0.00 0.00 0.00 20 1012.0
20260507224705 73 171 2.0 2.0 0.00 0.00 0.00 18 1012.0
20260507224201 74 253 6.0 7.0 0.00 0.00 0.00 20 1012.1
20260507223657 73 267 2.0 3.0 0.00 0.00 0.00 17 1011.9
20260507223154 73 226 4.0 7.0 0.00 0.00 0.00 20 1012.1
20260507222651 75 244 6.0 7.0 0.00 0.00 0.00 20 1012.2
20260507222147 74 174 1.0 1.0 0.00 0.00 0.00 20 1012.2
20260507221644 73 240 6.0 7.0 0.00 0.00 0.00 20 1012.2
20260507221140 74 91 1.0 1.0 0.00 0.00 0.00 23 1012.2
20260507220638 74 310 3.0 4.0 0.00 0.00 0.00 23 1012.4
20260507220136 73 167 0.0 1.0 0.00 0.00 0.00 22 1012.3
20260507215631 72 203 2.0 3.0 0.00 0.00 0.00 23 1012.4
20260507215129 74 254 7.0 9.0 0.00 0.00 0.00 23 1012.5
20260507214626 73 42 5.0 6.0 0.00 0.00 0.00 24 1012.5
20260507214122 73 328 3.0 3.0 0.00 0.00 0.00 27 1012.3
20260507213618 73 253 5.0 6.0 0.00 0.00 0.00 25 1012.6
20260507213116 73 192 4.0 4.0 0.00 0.00 0.00 25 1012.6
20260507212612 74 189 2.0 2.0 0.00 0.00 0.00 24 1012.5
20260507212109 72 152 2.0 2.0 0.00 0.00 0.00 28 1012.5
20260507211605 72 343 2.0 4.0 0.00 0.00 0.00 27 1012.9
20260507211101 72 122 2.0 2.0 0.00 0.00 0.00 29 1012.6
20260507210559 71 270 4.0 4.0 0.00 0.00 0.00 28 1012.9
20260507210055 73 213 4.0 6.0 0.00 0.00 0.00 30 1012.7
20260507205552 72 37 3.0 4.0 0.00 0.00 0.00 28 1012.7
20260507205048 73 321 5.0 6.0 0.00 0.00 0.00 29 1012.7
20260507204545 72 301 3.0 4.0 0.00 0.00 0.00 30 1013.0
20260507204043 71 254 6.0 7.0 0.00 0.00 0.00 31 1013.0
20260507203540 71 355 4.0 6.0 0.00 0.00 0.00 30 1012.9
20260507203038 71 101 2.0 3.0 0.00 0.00 0.00 32 1013.0
20260507202533 71 202 3.0 6.0 0.00 0.00 0.00 29 1013.0
20260507202029 70 1 2.0 3.0 0.00 0.00 0.00 33 1013.0
20260507201525 70 316 4.0 6.0 0.00 0.00 0.00 31 1013.1
20260507201021 71 353 4.0 7.0 0.00 0.00 0.00 31 1013.2
20260507200517 71 142 3.0 3.0 0.00 0.00 0.00 29 1013.2
20260507200014 70 92 2.0 3.0 0.00 0.00 0.00 28 1013.2
20260507195511 70 175 4.0 7.0 0.00 0.00 0.00 30 1013.2
20260507195008 69 192 2.0 2.0 0.00 0.00 0.00 31 1013.1
20260507194504 69 106 2.0 2.0 0.00 0.00 0.00 28 1013.2
20260507194000 69 102 1.0 1.0 0.00 0.00 0.00 29 1013.4
20260507193458 70 266 2.0 3.0 0.00 0.00 0.00 29 1013.2
20260507192954 70 189 1.0 2.0 0.00 0.00 0.00 32 1013.5
20260507192450 69 39 2.0 2.0 0.00 0.00 0.00 31 1013.3
20260507191948 70 131 0.0 0.0 0.00 0.00 0.00 30 1013.5
20260507191443 69 196 3.0 4.0 0.00 0.00 0.00 30 1013.4
20260507190940 69 163 1.0 2.0 0.00 0.00 0.00 32 1013.6
20260507190438 68 202 2.0 3.0 0.00 0.00 0.00 32 1013.6
20260507185937 68 278 6.0 7.0 0.00 0.00 0.00 33 1013.4
20260507185433 68 33 4.0 6.0 0.00 0.00 0.00 35 1013.6
20260507184930 68 312 2.0 2.0 0.00 0.00 0.00 35 1013.5
20260507184428 69 226 3.0 3.0 0.00 0.00 0.00 33 1013.6
20260507183926 66 88 1.0 2.0 0.00 0.00 0.00 34 1013.6
20260507183422 66 233 1.0 2.0 0.00 0.00 0.00 35 1014.0
20260507182920 68 284 4.0 6.0 0.00 0.00 0.00 35 1013.7
20260507182415 68 106 1.0 2.0 0.00 0.00 0.00 36 1013.7
20260507181912 66 158 2.0 2.0 0.00 0.00 0.00 36 1013.7
20260507181408 65 60 3.0 3.0 0.00 0.00 0.00 38 1013.9
20260507180905 66 153 2.0 3.0 0.00 0.00 0.00 39 1013.9
20260507180401 67 59 1.0 2.0 0.00 0.00 0.00 36 1013.8
20260507175857 66 130 0.0 0.0 0.00 0.00 0.00 36 1013.9
20260507175354 64 78 2.0 2.0 0.00 0.00 0.00 39 1014.0
20260507174852 66 282 6.0 7.0 0.00 0.00 0.00 37 1013.9
20260507174349 65 117 2.0 2.0 0.00 0.00 0.00 38 1014.0